| time (UTC) | temp C | wind direction | speed KPH | gust KPH | rain 1hr cm | rain 24hr cm | rain mn cm | humidity % | barometer mb |
| 20260507065716 | 23 | 0 | 1.6 | 6.4 | 0.00 | 0.03 | 0.00 | 75 | 991.4 |
| 20260507064714 | 23 | 175 | 1.6 | 6.4 | 0.00 | 0.03 | 0.00 | 75 | 991.5 |
| 20260507063714 | 23 | 178 | 3.2 | 8.0 | 0.00 | 0.03 | 0.00 | 74 | 991.8 |
| 20260507062714 | 23 | 267 | 3.2 | 6.4 | 0.00 | 0.03 | 0.00 | 74 | 991.9 |
| 20260507061714 | 23 | 200 | 1.6 | 6.4 | 0.00 | 0.03 | 0.00 | 73 | 992.2 |
| 20260507060714 | 23 | 243 | 3.2 | 8.0 | 0.00 | 0.03 | 0.00 | 73 | 992.4 |
| 20260507060147 | 23 | 182 | 3.2 | 9.7 | 0.00 | 0.03 | 0.00 | 72 | 992.4 |
| 20260507054714 | 23 | 162 | 3.2 | 6.4 | 0.00 | 0.03 | 0.00 | 72 | 992.5 |
| 20260507053713 | 23 | 192 | 3.2 | 8.0 | 0.00 | 0.03 | 0.00 | 72 | 992.8 |
| 20260507052713 | 23 | 204 | 3.2 | 6.4 | 0.00 | 0.03 | 0.00 | 71 | 993.0 |
| 20260507051713 | 23 | 230 | 3.2 | 8.0 | 0.00 | 0.03 | 0.00 | 71 | 993.2 |
| 20260507050713 | 23 | 286 | 3.2 | 9.7 | 0.00 | 0.03 | 0.00 | 70 | 993.4 |
| 20260507045710 | 23 | 240 | 3.2 | 11.3 | 0.00 | 0.03 | 0.00 | 70 | 993.5 |
| 20260507045143 | 23 | 137 | 4.8 | 9.7 | 0.00 | 0.03 | 0.00 | 69 | 993.5 |
| 20260507043710 | 23 | 180 | 3.2 | 8.0 | 0.00 | 0.03 | 0.00 | 69 | 993.5 |
| 20260507043148 | 23 | 179 | 3.2 | 8.0 | 0.00 | 0.03 | 0.00 | 69 | 993.5 |
| 20260507041711 | 23 | 195 | 3.2 | 9.7 | 0.00 | 0.03 | 0.00 | 69 | 993.6 |
| 20260507040708 | 23 | 172 | 3.2 | 8.0 | 0.00 | 0.03 | 0.00 | 68 | 993.5 |
| 20260507035708 | 23 | 160 | 3.2 | 11.3 | 0.00 | 0.03 | 0.03 | 68 | 993.8 |
| 20260507034707 | 24 | 252 | 3.2 | 6.4 | 0.00 | 0.03 | 0.03 | 68 | 993.7 |
| 20260507033708 | 24 | 164 | 3.2 | 8.0 | 0.00 | 0.03 | 0.03 | 67 | 993.6 |
| 20260507032708 | 24 | 170 | 3.2 | 6.4 | 0.00 | 0.03 | 0.03 | 67 | 993.2 |
| 20260507031709 | 24 | 221 | 3.2 | 6.4 | 0.00 | 0.03 | 0.03 | 67 | 993.1 |
| 20260507030709 | 24 | 215 | 3.2 | 6.4 | 0.00 | 0.03 | 0.03 | 67 | 993.1 |
| 20260507025705 | 24 | 222 | 3.2 | 6.4 | 0.00 | 0.03 | 0.03 | 67 | 992.9 |
| 20260507024705 | 24 | 188 | 1.6 | 8.0 | 0.00 | 0.03 | 0.03 | 68 | 993.0 |
| 20260507024200 | 24 | 137 | 1.6 | 8.0 | 0.00 | 0.03 | 0.03 | 68 | 993.1 |
| 20260507023140 | 24 | 183 | 1.6 | 6.4 | 0.00 | 0.03 | 0.03 | 68 | 992.9 |
| 20260507021705 | 24 | 212 | 3.2 | 6.4 | 0.00 | 0.03 | 0.03 | 67 | 993.0 |
| 20260507020704 | 24 | 180 | 1.6 | 8.0 | 0.00 | 0.03 | 0.03 | 68 | 992.8 |
| 20260507015704 | 25 | 0 | 1.6 | 6.4 | 0.00 | 0.03 | 0.03 | 69 | 993.1 |
| 20260507014704 | 25 | 145 | 3.2 | 9.7 | 0.00 | 0.03 | 0.03 | 69 | 993.4 |
| 20260507013705 | 25 | 226 | 3.2 | 8.0 | 0.00 | 0.03 | 0.03 | 68 | 993.7 |
| 20260507012704 | 25 | 200 | 4.8 | 12.9 | 0.00 | 0.03 | 0.03 | 66 | 993.8 |
| 20260507011704 | 25 | 217 | 6.4 | 14.5 | 0.00 | 0.03 | 0.03 | 64 | 993.9 |
| 20260507010705 | 25 | 216 | 4.8 | 14.5 | 0.00 | 0.03 | 0.03 | 63 | 993.4 |
| 20260507005705 | 25 | 105 | 4.8 | 14.5 | 0.00 | 0.03 | 0.03 | 62 | 993.7 |
| 20260507004705 | 25 | 148 | 4.8 | 14.5 | 0.00 | 0.03 | 0.03 | 63 | 993.3 |
| 20260507003705 | 26 | 112 | 6.4 | 14.5 | 0.00 | 0.03 | 0.03 | 62 | 993.4 |
| 20260507002705 | 26 | 118 | 6.4 | 14.5 | 0.00 | 0.03 | 0.03 | 62 | 993.2 |
| 20260507001702 | 26 | 301 | 6.4 | 16.1 | 0.00 | 0.03 | 0.03 | 61 | 993.4 |
| 20260507000701 | 26 | 159 | 6.4 | 19.3 | 0.00 | 0.03 | 0.03 | 61 | 993.4 |
| 20260507000138 | 26 | 167 | 6.4 | 14.5 | 0.00 | 0.03 | 0.03 | 61 | 993.5 |
| 20260506235138 | 27 | 130 | 8.0 | 17.7 | 0.00 | 0.03 | 0.03 | 61 | 993.6 |
| 20260506233702 | 27 | 74 | 9.7 | 19.3 | 0.00 | 0.03 | 0.03 | 61 | 993.9 |
| 20260506232702 | 27 | 102 | 9.7 | 19.3 | 0.00 | 0.03 | 0.03 | 61 | 994.1 |
| 20260506231702 | 27 | 93 | 9.7 | 20.9 | 0.00 | 0.03 | 0.03 | 59 | 994.5 |
| 20260506230659 | 28 | 165 | 8.0 | 16.1 | 0.00 | 0.03 | 0.03 | 61 | 994.6 |
| 20260506225657 | 28 | 117 | 8.0 | 20.9 | 0.00 | 0.03 | 0.03 | 62 | 995.0 |
| 20260506224657 | 28 | 107 | 8.0 | 16.1 | 0.00 | 0.03 | 0.03 | 62 | 996.7 |
| 20260506223657 | 28 | 116 | 9.7 | 20.9 | 0.00 | 0.03 | 0.03 | 62 | 997.5 |
| 20260506222658 | 28 | 88 | 8.0 | 16.1 | 0.00 | 0.03 | 0.03 | 61 | 998.1 |
| 20260506222142 | 29 | 85 | 9.7 | 19.3 | 0.00 | 0.03 | 0.03 | 60 | 998.2 |
| 20260506220657 | 29 | 195 | 9.7 | 17.7 | 0.00 | 0.03 | 0.03 | 61 | 998.6 |
| 20260506215657 | 29 | 166 | 8.0 | 16.1 | 0.00 | 0.03 | 0.03 | 59 | 999.1 |
| 20260506214656 | 29 | 113 | 9.7 | 14.5 | 0.00 | 0.03 | 0.03 | 62 | 999.0 |
| 20260506213656 | 29 | 104 | 8.0 | 17.7 | 0.00 | 0.03 | 0.03 | 63 | 999.5 |
| 20260506212656 | 29 | 165 | 9.7 | 17.7 | 0.00 | 0.03 | 0.03 | 63 | 999.9 |
| 20260506211656 | 29 | 105 | 9.7 | 19.3 | 0.00 | 0.03 | 0.03 | 63 | 1000.0 |
| 20260506210656 | 29 | 90 | 9.7 | 19.3 | 0.00 | 0.03 | 0.03 | 64 | 1000.2 |
| 20260506205656 | 29 | 71 | 9.7 | 17.7 | 0.00 | 0.03 | 0.03 | 63 | 1000.6 |
| 20260506204656 | 30 | 88 | 9.7 | 17.7 | 0.00 | 0.03 | 0.03 | 62 | 1000.5 |
| 20260506203656 | 30 | 87 | 6.4 | 14.5 | 0.00 | 0.03 | 0.03 | 60 | 1002.0 |
| 20260506202652 | 30 | 118 | 8.0 | 16.1 | 0.00 | 0.03 | 0.03 | 61 | 1001.7 |
| 20260506201705 | 29 | 86 | 8.0 | 16.1 | 0.00 | 0.03 | 0.03 | 61 | 1001.6 |
| 20260506200653 | 29 | 58 | 9.7 | 17.7 | 0.00 | 0.03 | 0.03 | 63 | 1001.3 |
| 20260506195653 | 30 | 65 | 8.0 | 14.5 | 0.00 | 0.03 | 0.03 | 61 | 1002.3 |
| 20260506194653 | 30 | 111 | 8.0 | 17.7 | 0.00 | 0.03 | 0.03 | 60 | 1003.2 |
| 20260506193653 | 30 | 39 | 8.0 | 14.5 | 0.00 | 0.03 | 0.03 | 60 | 1003.9 |
| 20260506192653 | 31 | 110 | 6.4 | 14.5 | 0.00 | 0.03 | 0.03 | 58 | 1005.0 |
| 20260506191653 | 31 | 76 | 6.4 | 14.5 | 0.00 | 0.03 | 0.03 | 58 | 1005.1 |
| 20260506190703 | 31 | 56 | 3.2 | 9.7 | 0.00 | 0.03 | 0.03 | 56 | 1006.8 |
| 20260506185650 | 31 | 257 | 4.8 | 9.7 | 0.00 | 0.03 | 0.03 | 48 | 1008.3 |
| 20260506184650 | 31 | 200 | 4.8 | 9.7 | 0.00 | 0.03 | 0.03 | 48 | 1008.4 |
| 20260506184130 | 31 | 199 | 4.8 | 9.7 | 0.00 | 0.03 | 0.03 | 48 | 1009.5 |
| 20260506182651 | 31 | 296 | 4.8 | 11.3 | 0.00 | 0.03 | 0.03 | 47 | 1009.0 |
| 20260506181704 | 31 | 197 | 4.8 | 11.3 | 0.00 | 0.03 | 0.03 | 50 | 1008.6 |
| 20260506180651 | 31 | 157 | 6.4 | 12.9 | 0.00 | 0.03 | 0.03 | 49 | 1008.5 |
| 20260506175651 | 31 | 178 | 4.8 | 11.3 | 0.00 | 0.03 | 0.03 | 50 | 1009.3 |
| 20260506173649 | 30 | 186 | 6.4 | 14.5 | 0.00 | 0.03 | 0.03 | 51 | 1009.4 |
| 20260506172649 | 30 | 165 | 6.4 | 14.5 | 0.00 | 0.03 | 0.03 | 52 | 1008.6 |
| 20260506172135 | 30 | 209 | 6.4 | 16.1 | 0.00 | 0.03 | 0.03 | 54 | 1008.3 |
| 20260506170649 | 30 | 210 | 8.0 | 16.1 | 0.00 | 0.03 | 0.03 | 54 | 1008.0 |
| 20260506165647 | 30 | 190 | 6.4 | 14.5 | 0.00 | 0.03 | 0.03 | 52 | 1009.3 |
| 20260506163644 | 30 | 232 | 6.4 | 14.5 | 0.00 | 0.03 | 0.03 | 54 | 1008.1 |
| 20260506162641 | 30 | 230 | 6.4 | 14.5 | 0.00 | 0.03 | 0.03 | 56 | 1008.3 |
| 20260506161654 | 29 | 278 | 6.4 | 14.5 | 0.00 | 0.03 | 0.03 | 55 | 1008.8 |
| 20260506160653 | 29 | 201 | 6.4 | 14.5 | 0.00 | 0.03 | 0.03 | 56 | 1009.0 |
| 20260506155654 | 29 | 267 | 6.4 | 14.5 | 0.00 | 0.03 | 0.03 | 57 | 1008.7 |
| 20260506154641 | 28 | 190 | 6.4 | 14.5 | 0.00 | 0.03 | 0.03 | 59 | 1008.6 |
| 20260506153641 | 28 | 105 | 8.0 | 14.5 | 0.00 | 0.03 | 0.03 | 58 | 1007.4 |
| 20260506152639 | 28 | 120 | 6.4 | 16.1 | 0.00 | 0.03 | 0.03 | 59 | 1007.8 |
| 20260506151638 | 28 | 151 | 6.4 | 12.9 | 0.00 | 0.03 | 0.03 | 59 | 1007.9 |
| 20260506150638 | 27 | 161 | 6.4 | 16.1 | 0.00 | 0.03 | 0.03 | 60 | 1007.0 |
| 20260506145638 | 27 | 193 | 8.0 | 14.5 | 0.00 | 0.03 | 0.03 | 61 | 1005.9 |
| 20260506144639 | 27 | 186 | 6.4 | 14.5 | 0.00 | 0.03 | 0.03 | 62 | 1005.3 |
| 20260506143639 | 26 | 202 | 6.4 | 14.5 | 0.00 | 0.03 | 0.03 | 62 | 1004.9 |
| 20260506142639 | 26 | 224 | 8.0 | 19.3 | 0.00 | 0.03 | 0.03 | 62 | 1004.6 |
| 20260506141639 | 26 | 186 | 9.7 | 19.3 | 0.00 | 0.03 | 0.03 | 63 | 1004.8 |
| 20260506140637 | 26 | 197 | 8.0 | 16.1 | 0.00 | 0.03 | 0.03 | 66 | 1004.6 |
| 20260506134634 | 25 | 163 | 6.4 | 14.5 | 0.00 | 0.03 | 0.03 | 70 | 1003.6 |
| 20260506133633 | 25 | 165 | 6.4 | 14.5 | 0.00 | 0.03 | 0.03 | 70 | 1002.8 |
| 20260506132633 | 24 | 191 | 6.4 | 14.5 | 0.00 | 0.03 | 0.03 | 72 | 1002.5 |
| 20260506131634 | 24 | 180 | 8.0 | 17.7 | 0.00 | 0.03 | 0.03 | 73 | 1001.6 |
| 20260506130634 | 23 | 173 | 6.4 | 16.1 | 0.00 | 0.03 | 0.03 | 74 | 1001.4 |
| 20260506130116 | 23 | 203 | 4.8 | 12.9 | 0.00 | 0.03 | 0.03 | 76 | 1000.5 |
| 20260506124635 | 22 | 206 | 4.8 | 9.7 | 0.00 | 0.03 | 0.03 | 77 | 1000.3 |
| 20260506123632 | 22 | 280 | 4.8 | 11.3 | 0.00 | 0.03 | 0.03 | 78 | 999.2 |
| 20260506122633 | 21 | 244 | 4.8 | 9.7 | 0.00 | 0.03 | 0.03 | 80 | 998.3 |
| 20260506121632 | 21 | 100 | 3.2 | 9.7 | 0.00 | 0.03 | 0.03 | 82 | 997.1 |
| 20260506120633 | 20 | 217 | 3.2 | 6.4 | 0.00 | 0.03 | 0.03 | 85 | 995.3 |
| 20260506115632 | 20 | 198 | 3.2 | 6.4 | 0.00 | 0.03 | 0.03 | 87 | 994.8 |
| 20260506114632 | 19 | 305 | 3.2 | 6.4 | 0.00 | 0.03 | 0.03 | 88 | 993.5 |
| 20260506113630 | 19 | 218 | 3.2 | 8.0 | 0.00 | 0.03 | 0.03 | 89 | 992.8 |
| 20260506112627 | 18 | 213 | 4.8 | 8.0 | 0.00 | 0.03 | 0.03 | 90 | 991.7 |
| 20260506110628 | 18 | 196 | 3.2 | 6.4 | 0.00 | 0.03 | 0.03 | 91 | 990.1 |
| 20260506105628 | 17 | 221 | 3.2 | 6.4 | 0.00 | 0.03 | 0.03 | 91 | 989.3 |
| 20260506104628 | 17 | 221 | 1.6 | 3.2 | 0.00 | 0.03 | 0.03 | 91 | 988.9 |
| 20260506103628 | 17 | 217 | 1.6 | 3.2 | 0.00 | 0.03 | 0.03 | 91 | 988.7 |
| 20260506102628 | 17 | 190 | 1.6 | 3.2 | 0.00 | 0.03 | 0.03 | 92 | 988.5 |
| 20260506101625 | 17 | 199 | 1.6 | 3.2 | 0.00 | 0.03 | 0.03 | 91 | 988.3 |
| 20260506100621 | 17 | 259 | 1.6 | 3.2 | 0.03 | 0.03 | 0.03 | 91 | 988.6 |
| 20260506100052 | 17 | 220 | 1.6 | 3.2 | 0.03 | 0.03 | 0.03 | 92 | 988.5 |
| 20260506094622 | 17 | 349 | 0.0 | 3.2 | 0.03 | 0.03 | 0.03 | 91 | 988.2 |
| 20260506093621 | 17 | 336 | 0.0 | 3.2 | 0.03 | 0.03 | 0.03 | 90 | 987.8 |
| 20260506092621 | 17 | 26 | 4.8 | 14.5 | 0.03 | 0.03 | 0.03 | 90 | 988.3 |
| 20260506092102 | 17 | 34 | 1.6 | 11.3 | 0.03 | 0.03 | 0.03 | 89 | 989.5 |
| 20260506090622 | 17 | 0 | 3.2 | 9.7 | 0.00 | 0.00 | 0.00 | 89 | 989.0 |
| 20260506085619 | 17 | 56 | 1.6 | 8.0 | 0.00 | 0.00 | 0.00 | 88 | 987.6 |
| 20260506084619 | 17 | 37 | 1.6 | 6.4 | 0.00 | 0.00 | 0.00 | 88 | 988.1 |
| 20260506083620 | 17 | 40 | 0.0 | 3.2 | 0.00 | 0.00 | 0.00 | 88 | 987.6 |
| 20260506082619 | 17 | 35 | 0.0 | 3.2 | 0.00 | 0.00 | 0.00 | 88 | 987.6 |
| 20260506081619 | 17 | 36 | 0.0 | 3.2 | 0.00 | 0.00 | 0.00 | 87 | 987.7 |
| 20260506080620 | 18 | 289 | 1.6 | 4.8 | 0.00 | 0.00 | 0.00 | 86 | 989.2 |
| 20260506072618 | 17 | 0 | 0.0 | 3.2 | 0.00 | 0.00 | 0.00 | 82 | 987.4 |
| 20260506071618 | 17 | 173 | 0.0 | 3.2 | 0.00 | 0.00 | 0.00 | 82 | 987.3 |